DL4ABR-6 Weather Reports


time (UTC)temp
C
wind
direction
speed
KPH
gust
KPH
rain 1hr
cm
rain 24hr
cm
rain mn
cm
humidity
%
barometer
mb
20260507112221 7 132 0.0 0.0 0.00 0.00 0.69 99 1011.7
20260507110930 7 112 0.0 0.0 0.00 0.00 0.69 99 1011.4
20260507105443 8 161 0.0 0.0 0.00 0.00 0.69 99 1011.4
20260507104155 8 118 0.0 0.0 0.00 0.00 0.69 99 1011.2
20260507102855 8 118 1.6 1.6 0.00 0.00 0.69 99 1011.2
20260507101640 7 152 0.0 0.0 0.00 0.00 0.69 99 1011.1
20260507100335 8 151 1.6 1.6 0.00 0.00 0.69 99 1011.0
20260507094846 8 178 0.0 1.6 0.00 0.00 0.69 99 1010.6
20260507093624 7 146 1.6 1.6 0.00 0.00 0.69 99 1010.7
20260507092400 7 85 1.6 1.6 0.00 0.00 0.69 99 1010.4
20260507090910 7 157 0.0 0.0 0.00 0.00 0.69 99 1010.4
20260507085530 7 154 0.0 0.0 0.00 0.00 0.69 99 1010.2
20260507084135 7 157 0.0 0.0 0.00 0.00 0.69 99 1010.0
20260507082755 7 181 0.0 1.6 0.00 0.00 0.69 99 1009.9
20260507081530 7 165 0.0 1.6 0.00 0.00 0.69 99 1009.9
20260507080215 7 151 1.6 1.6 0.00 0.00 0.69 99 1009.5
20260507074855 7 156 0.0 0.0 0.00 0.00 0.69 99 1009.7
20260507073535 7 146 0.0 0.0 0.00 0.00 0.69 99 1009.3
20260507072050 7 156 0.0 0.0 0.00 0.00 0.69 99 1009.5
20260507070554 7 129 0.0 0.0 0.00 0.00 0.69 99 1009.2
20260507065320 7 136 0.0 1.6 0.00 0.00 0.69 99 1009.1
20260507064027 7 146 0.0 0.0 0.00 0.00 0.69 99 1009.1
20260507062820 7 140 0.0 0.0 0.00 0.00 0.69 99 1008.8
20260507061320 7 145 0.0 0.0 0.00 0.00 0.69 99 1008.4
20260507055835 7 132 0.0 0.0 0.00 0.00 0.69 99 1008.2
20260507054415 7 136 0.0 0.0 0.00 0.00 0.69 99 1008.2
20260507053140 7 135 0.0 0.0 0.00 0.00 0.69 99 1008.1
20260507051650 7 151 0.0 1.6 0.00 0.00 0.69 99 1008.1
20260507050215 7 123 1.6 1.6 0.00 0.00 0.66 99 1007.6
20260507044954 6 149 0.0 0.0 0.00 0.00 0.64 99 1007.7
20260507043520 6 126 0.0 0.0 0.00 0.00 0.58 99 1007.4
20260507042040 6 156 0.0 0.0 0.00 0.00 0.51 99 1007.2
20260507040741 6 165 0.0 0.0 0.00 0.00 0.48 99 1007.2
20260507035455 7 157 0.0 0.0 0.00 0.00 0.46 99 1007.2
20260507034210 7 222 1.6 4.8 0.00 0.00 0.46 99 1007.0
20260507032745 7 136 0.0 0.0 0.00 0.00 0.41 99 1007.0
20260507031410 7 146 0.0 0.0 0.00 0.00 0.33 99 1006.9
20260507025920 7 133 0.0 1.6 0.00 0.00 0.30 99 1006.9
20260507024600 7 126 0.0 0.0 0.00 0.00 0.28 99 1006.8
20260507023244 7 125 0.0 0.0 0.00 0.00 0.28 99 1006.6
20260507022020 7 139 0.0 0.0 0.00 0.00 0.25 99 1006.6
20260507020524 7 151 0.0 1.6 0.00 0.00 0.23 99 1006.4
20260507015200 7 175 0.0 0.0 0.00 0.00 0.23 99 1006.1
20260507013835 7 146 0.0 0.0 0.00 0.00 0.23 99 1006.1
20260507012524 7 121 0.0 0.0 0.00 0.00 0.20 99 1006.1
20260507011320 8 139 0.0 0.0 0.00 0.00 0.20 99 1005.8
20260507005927 8 139 0.0 1.6 0.00 0.00 0.18 99 1005.9
20260507004624 8 155 0.0 0.0 0.00 0.00 0.18 99 1005.8
20260507003340 8 151 0.0 0.0 0.00 0.00 0.18 99 1005.7
20260507001915 8 139 0.0 0.0 0.00 0.00 0.18 99 1005.7
20260507000650 8 136 0.0 0.0 0.00 0.00 0.18 99 1005.4
20260506235430 8 145 0.0 0.0 0.00 0.00 0.18 99 1005.6
20260506234024 8 162 0.0 0.0 0.00 0.00 0.18 99 1005.4
20260506232644 8 131 0.0 0.0 0.00 0.00 0.15 99 1005.5
20260506231154 8 133 0.0 0.0 0.00 0.00 0.15 99 1005.1
20260506225920 8 136 0.0 0.0 0.00 0.00 0.13 99 1005.6
20260506224535 8 69 1.6 1.6 0.00 0.00 0.13 99 1005.3
20260506223325 8 139 0.0 0.0 0.00 0.00 0.10 99 1005.0
20260506222110 8 178 0.0 0.0 0.00 0.00 0.08 99 1005.0
20260506220750 8 128 0.0 0.0 0.00 0.00 0.05 99 1005.0
20260506215524 8 139 0.0 0.0 0.00 0.00 2.64 99 1005.0
20260506214230 8 139 0.0 0.0 0.00 0.00 2.62 99 1004.9
20260506212835 8 100 0.0 1.6 0.00 0.00 2.59 99 1005.0
20260506211624 8 154 0.0 0.0 0.00 0.00 2.59 99 1004.8
20260506210415 8 106 0.0 1.6 0.00 0.00 2.59 99 1004.6
20260506205119 8 340 1.6 1.6 0.00 0.00 2.57 99 1004.5
20260506203655 8 136 0.0 0.0 0.00 0.00 2.57 99 1004.5
20260506202200 9 98 3.2 3.2 0.00 0.00 2.54 99 1004.4
20260506200940 9 169 0.0 0.0 0.00 0.00 2.54 99 1004.4
20260506195604 10 132 3.2 3.2 0.00 0.00 2.54 99 1004.2
20260506194224 10 146 0.0 0.0 0.00 0.00 2.54 99 1003.8
20260506192724 10 203 0.0 0.0 0.00 0.00 2.54 99 1003.8
20260506191444 10 149 0.0 0.0 0.00 0.00 2.54 99 1003.8
20260506190144 10 208 0.0 1.6 0.00 0.00 2.54 99 1003.5
20260506184805 10 152 0.0 0.0 0.00 0.00 2.54 99 1003.2
20260506183340 10 111 1.6 3.2 0.00 0.00 2.54 99 1003.2
20260506182135 10 154 0.0 0.0 0.00 0.00 2.54 99 1003.1
20260506180744 10 114 0.0 1.6 0.00 0.00 2.54 99 1003.0
20260506175350 10 211 1.6 3.2 0.00 0.00 2.51 99 1003.0
20260506174145 10 149 0.0 1.6 0.00 0.00 2.51 99 1003.3
20260506172655 10 155 0.0 0.0 0.00 0.00 2.51 99 1003.0
20260506171310 10 152 0.0 0.0 0.00 0.00 2.49 99 1003.0
20260506165930 10 63 1.6 3.2 0.00 0.00 2.46 99 1002.9
20260506164635 10 122 0.0 0.0 0.00 0.00 2.44 99 1002.6
20260506163305 10 149 0.0 0.0 0.00 0.00 2.39 99 1002.8
20260506161910 10 160 0.0 0.0 0.00 0.00 2.36 99 1002.7
20260506160535 10 146 0.0 1.6 0.00 0.00 2.26 99 1002.9
20260506155245 10 152 0.0 0.0 0.00 0.00 2.24 99 1002.7
20260506153955 10 146 0.0 0.0 0.00 0.00 2.21 99 1002.9
20260506152604 10 79 0.0 1.6 0.00 0.00 2.21 99 1002.8
20260506151250 10 152 0.0 1.6 0.00 0.00 2.21 99 1002.8
20260506145940 10 131 0.0 0.0 0.00 0.00 2.18 99 1003.0
20260506144550 10 119 0.0 1.6 0.00 0.00 2.18 99 1002.8
20260506143055 10 133 0.0 0.0 0.00 0.00 2.18 99 1002.9
20260506141800 10 161 0.0 0.0 0.00 0.00 2.18 99 1003.0
20260506140455 10 77 3.2 4.8 0.00 0.00 2.18 99 1003.0
20260506134955 10 130 0.0 0.0 0.00 0.00 2.18 99 1003.0
20260506133504 10 139 0.0 0.0 0.00 0.00 2.16 99 1003.2
20260506132210 10 156 0.0 0.0 0.00 0.00 2.16 99 1003.3
20260506130950 10 151 0.0 0.0 0.00 0.00 2.16 99 1003.1
20260506125744 10 124 1.6 3.2 0.00 0.00 2.13 99 1003.0
20260506124535 10 157 1.6 1.6 0.00 0.00 2.13 99 1003.1
20260506123320 10 105 1.6 1.6 0.00 0.00 2.11 99 1002.9
20260506122115 10 149 3.2 3.2 0.00 0.00 2.11 99 1003.0
20260506120620 10 167 0.0 1.6 0.00 0.00 2.11 99 1003.0
20260506115242 10 151 0.0 0.0 0.00 0.00 2.08 99 1002.9
20260506113950 9 124 0.0 1.6 0.00 0.00 2.06 99 1003.1